Find Starlink 5348

NORAD ID: 56515 Int'l Des: 2023-065 Owner: SPXS Country: US Constellation: starlink operational
LEOCIRCULAR

Current View

Loading 3D Globe...

About Starlink 5348

Starlink 5348 (NORAD 56515) is a starlink constellation satellite (v1.5) launched May 14, 2023 by SPXS of US. It operates in LEO, CIRCULAR orbit with a mass of 305.00 kg.

About Starlink 5348

Description loading...

Upcoming Passes

Passes for default location (London). Set your location on the main map for personalized predictions.

Altitude History

Loading altitude history...

Two-Line Element Set

1 56515U 23065N 26173.19882098 .00001032 00000-0 47030-4 0 9996
2 56515 43.0049 342.2187 0002045 278.8620 81.2000 15.27578554172588
Epoch: Jun 22, 2026 • Age: 26 hours

Current Status

Altitude 482.9 km
Velocity 7.63 km/s
Sub-Earth Point 13.32°N, 131.39°E
Launch Date May 14, 2023
Age 3.1 years
Type internet

Technical Details

Classification Payload
Mass 305.00 kg
Dry Mass 290.00 kg
Total Mass 305.00 kg
Length 0.20 m
Diameter 2.80 m
Span 9.00 m
Shape Box + pan
Manufacturer SPXS
Bus Type Starlink
Phase Status In Orbit
Owner/State SPXS/US

Most Searched